{"data":{"norad_id":68928,"intl_designator":"2026-098K","name":"KUIPER-00413","alt_names":[],"object_type":"PAYLOAD","status":"ACTIVE","operator":null,"country":"US","launch_date":"2026-04-30","launch_site_code":"FRGUI","launch_vehicle":null,"mission":null,"orbit_class":"UNKNOWN","rcs_meters":null,"size_class":null,"mass_kg":null,"dimensions":null,"purposes":[],"wikipedia_slug":null,"has_3d_model":false,"image_url":null,"decayed_at":null,"tle_current":{"epoch":"2026-05-24T11:06:27.550368Z","epoch_age_seconds":111649,"freshness":"FRESH","line1":"1 68928U 26098K   26144.46281887  .00000282  00000+0  22273-4 0  9990","line2":"2 68928  51.8728 182.7284 0025180  76.1296 284.2486 15.29798653  3692","mean_motion":15.29798653,"eccentricity":0.002518,"inclination_deg":51.8728,"raan_deg":182.7284,"arg_perigee_deg":76.1296,"mean_anomaly_deg":284.2486,"bstar":2.2273e-5,"rev_number":369,"period_min":94.130034509842,"perigee_km":459.15392258719,"apogee_km":493.67343981772,"semimajor_km":6854.5506812025,"source":"CELESTRAK","updated_at":"2026-05-25T13:38:08.794323Z"}}}